Beaufort MCAS - Merritt Field
KNBC : now visible

Airfield :











YOU CAN JOIN US ON...

 
LOGIN :

Register | Disclaimer

   EN    FR    IT 

 









Legend :    VFR   Marginal VFR   IFR   Intensive IFR   Very Intensive IFR
Visi :
Ceiling :
>= 8 km
>= 3000ft
5 to 8 km
1000 to 3000 ft
1500m to 5 km
500 to 1000 ft
800 to 1500m
200 to 500 ft
< 800m
< 200 ft
Symbols :   Thunderstorms  Fog  Heavy snow  Heavy precipitations  Wind > 20 kt






- Airport Elevation : 37 ft


KNBC - Beaufort MCAS - Merritt Field

CURRENT METAR :
  • 171856Z 11010KT 10SM FEW030 BKN250 27/14 A3023 RMK AO2 SLP238 T02670139

EXPIRED METARs :
  • 171756Z 12005KT 10SM FEW030 SCT250 27/09 A3024 RMK AO2 SLP240 T02670094 10278 20189 56009
  • 171656Z 09007KT 070V130 10SM SCT250 27/11 A3024 RMK AO2 SLP241 T02670111

TAF TAF KNBC
Valid from the 17 at 15:00 until the 18 at 15:00 UTC


1715/1815 09008KT 9999 FEW250 QNH3020INS T28/1720Z T19/1811Z
KZJX FIR / North America



MET'MAP, your aeronautical weather chart ! - Copyright ORBIFLY December 2007 - Disclaimer

ORBIFLY MET'MAP TEAM :

Programming & Development : Alexandra Zaïnal
Concept & original design : Baudouin d'Aumeries
Assistance for programming : Marc-Olivier Méhu
Technical & hardware support : Manuel Goepfert

Contact : metmap@orbifly.com




SOURCES & CREDITS :

   NOAA       Earth
Advisory